Location: Cisewo
(53.3833°N, 14.9000°E)
Time: 10:23:54
(UTC+00:00)

Cosmos 389 Rocket - Pass Details

Date: 18 April 2021
Orbit: 441 x 472 km, 81.1° (Epoch: 14 May)

Event Time Altitude Azimuth Distance (km) Brightness Sun altitude
Exits shadow 20:00:13 10° 196° (SSW) 1,600 4.9 -15.1°
Maximum altitude 20:03:43 80° 282° (WNW) 480 2.5 -15.4°
Drops below altitude 10° 20:07:19 10° 12° (NNE) 1,640 5.7 -15.8°
Sets 20:09:25 0° 13° (NNE) 2,527 6.7 -16.0°
